SLI1418 MMMX-MMTM

Flight info

Callsign SLI1418
Flight time 0h 39m
Altitude 29000
Route IKLAN2A IKLAN UT141 TAM
Aircraft E190/M-SDE3GILORVW/S

Departure

Time 2026-05-08 06:13
Airport Mexico City Benito Juárez International Airport (MMMX)

Arrival

Time 2026-05-08 06:52
Airport General Francisco Javier Mina International Airport (MMTM)
Time Latitude Longitude Altitude Speed Heading
2026-05-08 05:52 19.42149 -99.08167 7301 ft 0 kts 208°
2026-05-08 06:04 19.42158 -99.08161 7301 ft 4 kts 218°
2026-05-08 06:04 19.42172 -99.08141 7302 ft 4 kts 272°
2026-05-08 06:04 19.42167 -99.08119 7301 ft 1 kts 301°
2026-05-08 06:04 19.42165 -99.08115 7301 ft 0 kts 301°
2026-05-08 06:08 19.42166 -99.08118 7301 ft 1 kts 301°
2026-05-08 06:08 19.42171 -99.08126 7302 ft 2 kts 300°
2026-05-08 06:09 19.42187 -99.08153 7301 ft 6 kts 302°
2026-05-08 06:09 19.42215 -99.08195 7301 ft 7 kts 319°
2026-05-08 06:09 19.42264 -99.08203 7301 ft 8 kts
2026-05-08 06:09 19.42321 -99.08204 7301 ft 8 kts 349°
2026-05-08 06:10 19.42375 -99.08242 7301 ft 10 kts 313°
2026-05-08 06:10 19.42411 -99.08315 7301 ft 12 kts 292°
2026-05-08 06:10 19.42446 -99.08396 7301 ft 12 kts 292°
2026-05-08 06:10 19.42474 -99.08482 7301 ft 13 kts 292°
2026-05-08 06:11 19.42515 -99.08560 7302 ft 12 kts 306°
2026-05-08 06:11 19.42576 -99.08593 7301 ft 7 kts 335°
2026-05-08 06:11 19.42622 -99.08618 7302 ft 8 kts 327°
2026-05-08 06:11 19.42658 -99.08636 7304 ft 4 kts 352°
2026-05-08 06:12 19.42683 -99.08614 7303 ft 5 kts 55°
2026-05-08 06:12 19.42704 -99.08576 7303 ft 6 kts 59°
2026-05-08 06:12 19.42728 -99.08533 7303 ft 7 kts 59°
2026-05-08 06:12 19.42757 -99.08482 7302 ft 12 kts 59°
2026-05-08 06:13 19.42916 -99.08199 7301 ft 79 kts 59°
2026-05-08 06:13 19.43312 -99.07490 7302 ft 142 kts 59°
2026-05-08 06:13 19.43913 -99.06429 7357 ft 192 kts 59°
2026-05-08 06:13 19.44656 -99.05139 7948 ft 214 kts 58°
2026-05-08 06:14 19.45470 -99.03816 8886 ft 213 kts 56°
2026-05-08 06:14 19.46298 -99.02485 9698 ft 221 kts 58°
2026-05-08 06:14 19.47132 -99.01060 10416 ft 232 kts 58°
2026-05-08 06:14 19.47994 -98.99589 11127 ft 242 kts 58°
2026-05-08 06:15 19.48925 -98.98021 11753 ft 258 kts 58°
2026-05-08 06:15 19.49931 -98.96317 12137 ft 287 kts 59°
2026-05-08 06:15 19.50970 -98.94438 12672 ft 309 kts 60°
2026-05-08 06:15 19.52085 -98.92396 13298 ft 327 kts 60°
2026-05-08 06:16 19.53284 -98.90329 14333 ft 331 kts 53°
2026-05-08 06:16 19.54741 -98.88467 15393 ft 333 kts 49°
2026-05-08 06:16 19.56347 -98.86609 16379 ft 340 kts 47°
2026-05-08 06:16 19.57972 -98.84804 17210 ft 347 kts 46°
2026-05-08 06:17 19.61323 -98.81019 18866 ft 358 kts 48°
2026-05-08 06:17 19.63028 -98.79046 19559 ft 364 kts 48°
2026-05-08 06:17 19.64737 -98.77070 20273 ft 369 kts 49°
2026-05-08 06:18 19.66493 -98.75042 20965 ft 374 kts 49°
2026-05-08 06:18 19.68273 -98.72985 21638 ft 379 kts 49°
2026-05-08 06:18 19.70184 -98.71055 22225 ft 387 kts 36°
2026-05-08 06:18 19.72652 -98.69856 22826 ft 394 kts 13°
2026-05-08 06:19 19.75354 -98.69494 23415 ft 398 kts
2026-05-08 06:19 19.78160 -98.69322 23960 ft 403 kts
2026-05-08 06:19 19.80968 -98.69165 24494 ft 408 kts
2026-05-08 06:19 19.83825 -98.68995 25080 ft 411 kts
2026-05-08 06:20 19.86659 -98.68825 25615 ft 413 kts
2026-05-08 06:20 19.89555 -98.68657 26174 ft 415 kts
2026-05-08 06:20 19.92452 -98.68497 26338 ft 421 kts
2026-05-08 06:20 19.95356 -98.68462 26310 ft 418 kts 352°
2026-05-08 06:21 19.98134 -98.69281 26281 ft 412 kts 330°
2026-05-08 06:21 20.00515 -98.70917 26235 ft 410 kts 321°
2026-05-08 06:21 20.02806 -98.72730 26150 ft 407 kts 320°
2026-05-08 06:21 20.05082 -98.74523 26157 ft 406 kts 321°
2026-05-08 06:22 20.07351 -98.76286 26165 ft 407 kts 321°
2026-05-08 06:22 20.09651 -98.78061 26148 ft 408 kts 321°
2026-05-08 06:22 20.11963 -98.79841 26160 ft 408 kts 321°
2026-05-08 06:22 20.14231 -98.81582 26503 ft 402 kts 321°
2026-05-08 06:23 20.16496 -98.83328 27208 ft 400 kts 321°
2026-05-08 06:23 20.18724 -98.85078 27707 ft 402 kts 320°
2026-05-08 06:23 20.20995 -98.86864 28158 ft 405 kts 320°
2026-05-08 06:23 20.23393 -98.88496 28533 ft 414 kts 333°
2026-05-08 06:24 20.26147 -98.89311 28853 ft 424 kts 353°
2026-05-08 06:24 20.29117 -98.89384 29302 ft 425 kts 359°
2026-05-08 06:24 20.32119 -98.89311 29432 ft 436 kts 359°
2026-05-08 06:24 20.35200 -98.89228 29455 ft 448 kts 359°
2026-05-08 06:25 20.38341 -98.89156 29201 ft 466 kts 359°
2026-05-08 06:25 20.41622 -98.89022 29201 ft 474 kts
2026-05-08 06:25 20.44894 -98.88205 29170 ft 487 kts 21°
2026-05-08 06:25 20.47820 -98.86414 29202 ft 496 kts 35°
2026-05-08 06:26 20.53450 -98.81944 29104 ft 507 kts 36°
2026-05-08 06:26 20.59123 -98.77489 29120 ft 508 kts 36°
2026-05-08 06:27 20.64856 -98.73002 29098 ft 509 kts 36°
2026-05-08 06:27 20.70549 -98.68568 29114 ft 509 kts 36°
2026-05-08 06:28 20.76262 -98.64113 29089 ft 509 kts 36°
2026-05-08 06:28 20.81975 -98.59652 29091 ft 510 kts 36°
2026-05-08 06:29 20.87725 -98.55146 29102 ft 511 kts 36°
2026-05-08 06:29 20.93474 -98.50657 29093 ft 511 kts 36°
2026-05-08 06:30 20.99175 -98.46195 29097 ft 510 kts 36°
2026-05-08 06:30 21.04921 -98.41693 29050 ft 512 kts 36°
2026-05-08 06:31 21.10649 -98.37199 29044 ft 512 kts 36°
2026-05-08 06:31 21.16418 -98.32663 28940 ft 513 kts 36°
2026-05-08 06:32 21.22147 -98.28161 28917 ft 514 kts 36°
2026-05-08 06:32 21.27598 -98.23201 28932 ft 515 kts 44°
2026-05-08 06:33 21.32684 -98.17826 28896 ft 515 kts 44°
2026-05-08 06:33 21.37812 -98.12454 28906 ft 515 kts 44°
2026-05-08 06:34 21.42959 -98.07093 28905 ft 516 kts 44°
2026-05-08 06:34 21.48113 -98.01706 28904 ft 516 kts 44°
2026-05-08 06:35 21.52386 -97.97218 28905 ft 516 kts 44°
2026-05-08 06:35 21.57518 -97.91807 28907 ft 517 kts 44°
2026-05-08 06:36 21.60353 -97.89443 28905 ft 516 kts 28°
2026-05-08 06:36 21.63621 -97.88054 28932 ft 512 kts 11°
2026-05-08 06:36 21.67137 -97.87726 28948 ft 505 kts 353°
2026-05-08 06:36 21.70553 -97.88465 28969 ft 497 kts 336°
2026-05-08 06:37 21.73579 -97.90175 28972 ft 488 kts 320°
2026-05-08 06:37 21.75984 -97.92697 28936 ft 477 kts 303°
2026-05-08 06:37 21.77551 -97.95760 28938 ft 469 kts 288°
2026-05-08 06:37 21.78987 -97.98938 28919 ft 476 kts 301°
2026-05-08 06:38 21.81288 -98.01529 28923 ft 488 kts 319°
2026-05-08 06:38 21.84321 -98.03227 28932 ft 498 kts 339°
2026-05-08 06:38 21.87770 -98.03815 28942 ft 508 kts 357°
2026-05-08 06:38 21.91281 -98.03205 28951 ft 515 kts 17°
2026-05-08 06:39 21.94530 -98.01572 28943 ft 518 kts 28°
2026-05-08 06:39 21.97624 -97.99564 28916 ft 517 kts 30°
2026-05-08 06:39 22.03823 -97.95736 28897 ft 518 kts 27°
2026-05-08 06:40 22.10343 -97.92486 28909 ft 515 kts 18°
2026-05-08 06:40 22.17134 -97.90015 28915 ft 514 kts 15°
2026-05-08 06:41 22.23967 -97.87728 28677 ft 517 kts 15°
2026-05-08 06:41 22.27383 -97.86613 28235 ft 505 kts 13°
2026-05-08 06:41 22.30782 -97.86157 27736 ft 481 kts 354°
2026-05-08 06:42 22.33945 -97.86861 27288 ft 447 kts 334°
2026-05-08 06:42 22.36620 -97.88206 26834 ft 415 kts 330°
2026-05-08 06:42 22.39205 -97.89482 26196 ft 397 kts 333°
2026-05-08 06:42 22.41711 -97.90569 25421 ft 390 kts 336°
2026-05-08 06:43 22.44244 -97.91581 24662 ft 386 kts 336°
2026-05-08 06:43 22.46750 -97.92576 23880 ft 381 kts 336°
2026-05-08 06:43 22.49212 -97.93563 23107 ft 373 kts 336°
2026-05-08 06:43 22.51615 -97.94537 22335 ft 366 kts 336°
2026-05-08 06:44 22.53983 -97.95503 21552 ft 360 kts 336°
2026-05-08 06:44 22.56307 -97.96455 20787 ft 354 kts 336°
2026-05-08 06:44 22.58595 -97.97399 19998 ft 349 kts 336°
2026-05-08 06:44 22.60846 -97.98333 19230 ft 344 kts 336°
2026-05-08 06:45 22.63016 -97.99366 18443 ft 337 kts 324°
2026-05-08 06:45 22.64685 -98.01062 17648 ft 325 kts 300°
2026-05-08 06:45 22.65516 -98.03228 16898 ft 310 kts 276°
2026-05-08 06:45 22.65415 -98.05492 16109 ft 298 kts 250°
2026-05-08 06:46 22.64420 -98.07400 15337 ft 288 kts 225°
2026-05-08 06:46 22.62774 -98.08567 14557 ft 283 kts 198°
2026-05-08 06:46 22.60844 -98.08767 13773 ft 281 kts 171°
2026-05-08 06:46 22.58956 -98.08258 13011 ft 279 kts 163°
2026-05-08 06:47 22.57238 -98.07277 12244 ft 283 kts 146°
2026-05-08 06:47 22.55648 -98.06040 11524 ft 279 kts 145°
2026-05-08 06:47 22.54072 -98.04827 10819 ft 276 kts 145°
2026-05-08 06:47 22.52533 -98.03657 10116 ft 272 kts 145°
2026-05-08 06:48 22.50990 -98.02491 9425 ft 269 kts 145°
2026-05-08 06:48 22.49459 -98.01340 8714 ft 267 kts 145°
2026-05-08 06:48 22.47939 -98.00206 8011 ft 263 kts 145°
2026-05-08 06:48 22.46437 -97.99097 7317 ft 259 kts 145°
2026-05-08 06:49 22.44948 -97.98013 6611 ft 257 kts 145°
2026-05-08 06:49 22.43476 -97.96934 5904 ft 255 kts 143°
2026-05-08 06:49 22.42043 -97.95826 5215 ft 252 kts 143°
2026-05-08 06:49 22.40614 -97.94725 4506 ft 250 kts 144°
2026-05-08 06:50 22.39163 -97.93704 3799 ft 248 kts 146°
2026-05-08 06:50 22.37707 -97.92733 3244 ft 241 kts 146°
2026-05-08 06:50 22.36333 -97.91814 2832 ft 225 kts 146°
2026-05-08 06:50 22.35062 -97.90969 2408 ft 205 kts 146°
2026-05-08 06:51 22.33898 -97.90180 1944 ft 191 kts 145°
2026-05-08 06:51 22.32833 -97.89384 1534 ft 179 kts 144°
2026-05-08 06:51 22.31802 -97.88612 799 ft 187 kts 143°
2026-05-08 06:51 22.30785 -97.87813 432 ft 176 kts 144°
2026-05-08 06:52 22.29786 -97.87086 111 ft 165 kts 144°
2026-05-08 06:52 22.28955 -97.86469 101 ft 120 kts 145°
2026-05-08 06:52 22.28419 -97.86060 97 ft 66 kts 144°
2026-05-08 06:52 22.28218 -97.85936 99 ft 13 kts 197°
2026-05-08 06:53 22.28225 -97.85968 99 ft 6 kts 322°
2026-05-08 06:53 22.28286 -97.86003 99 ft 12 kts 334°
2026-05-08 06:53 22.28365 -97.86042 98 ft 14 kts 337°
2026-05-08 06:53 22.28498 -97.86130 99 ft 38 kts 327°
2026-05-08 06:54 22.28787 -97.86339 99 ft 24 kts 322°
2026-05-08 06:54 22.28889 -97.86424 101 ft 19 kts 322°
2026-05-08 06:54 22.28981 -97.86500 102 ft 17 kts 322°
2026-05-08 06:54 22.29087 -97.86575 101 ft 13 kts 327°
2026-05-08 06:55 22.29126 -97.86659 99 ft 15 kts 249°
2026-05-08 06:55 22.29059 -97.86748 98 ft 16 kts 235°
2026-05-08 06:55 22.29011 -97.86823 99 ft 9 kts 236°
2026-05-08 06:55 22.29004 -97.86884 98 ft 8 kts 253°
2026-05-08 06:56 22.28984 -97.86914 100 ft 2 kts 232°
2026-05-08 06:56 22.28981 -97.86919 100 ft 0 kts 233°